weather.gov     
National Weather Service

Terminal Aerodrome Forecast
NWS Homepage
This page is being discontinued on March 12, 2014.
The same data is available at this site. Please update your bookmarks.
Thank you, and we apologize for the inconvenience.
Please send an email to SR-SRH.Webmaster@noaa.gov with any concerns.


Current Version
Previous Version:    01  02  03  04  05  06  07  08  09  10  11  12  13  14  
[Printable]
857
FTUS41 KGYX 240100 AAA
TAFPWM
TAF AMD
KPWM 240141Z 2402/2424 35005KT 5SM SHRA BR BKN060
     FM240400 30005KT P6SM SCT040 BKN100
     FM240800 34005KT 3SM BR SCT012 SCT040 BKN100
     FM241200 35009KT P6SM SCT040 SCT120
     FM242100 18006KT P6SM FEW050=


U.S. Dept. of Commerce
NOAA National Weather Service
1325 East West Highway
Silver Spring, MD 20910
E-mail: w-nws.webmaster@noaa.gov
Page last modified: May 16, 2007
NATIONAL WEATHER SERVICE: for Safety, for Work, for Fun - FOR LIFE